EW6618 Weather Reports


Display with metric or nautical units.
time (UTC)temp
F
wind
direction
speed
MPH
gust
MPH
rain 1hr
in
rain 24hr
in
rain mn
in
humidity
%
barometer
mb
20260507180323 68 203 4.0 6.0 0.00 0.00 0.00 77 1016.9
20260507175324 67 241 4.0 9.0 0.00 0.00 0.00 77 1017.0
20260507174304 67 41 4.0 9.0 0.00 0.00 0.00 77 1016.9
20260507172221 67 233 4.0 7.0 0.00 0.00 0.00 77 1017.1
20260507171218 67 264 4.0 7.0 0.00 0.00 0.00 77 1017.1
20260507170153 67 246 3.0 7.0 0.00 0.00 0.00 77 1017.0
20260507165135 67 8 2.0 4.0 0.00 0.00 0.00 78 1017.0
20260507164101 66 255 2.0 4.0 0.00 0.00 0.00 78 1017.1
20260507161924 66 20 2.0 5.0 0.00 0.00 0.00 80 1017.1
20260507160946 65 262 2.0 5.0 0.00 0.00 0.00 81 1017.0
20260507155943 65 249 2.0 5.0 0.00 0.00 0.00 81 1017.1
20260507155002 64 66 3.0 4.0 0.00 0.00 0.00 83 1017.1
20260507153949 65 187 2.0 4.0 0.00 0.00 0.00 84 1017.1
20260507152950 64 245 1.0 4.0 0.00 0.00 0.00 85 1017.1
20260507151950 63 9 3.0 6.0 0.00 0.00 0.00 86 1017.2
20260507150923 62 288 3.0 6.0 0.00 0.00 0.00 87 1017.2
20260507145926 62 295 2.0 5.0 0.00 0.00 0.00 88 1017.1
20260507143811 61 173 1.0 5.0 0.00 0.00 0.00 90 1017.1
20260507141608 60 251 1.0 4.0 0.00 0.00 0.00 91 1016.9
20260507140600 60 274 2.0 4.0 0.00 0.00 0.00 91 1016.7
20260507135557 59 271 1.0 3.0 0.00 0.00 0.00 92 1016.7
20260507133411 59 290 1.0 3.0 0.00 0.00 0.00 91 1016.6
20260507132400 59 266 1.0 3.0 0.00 0.00 0.00 91 1016.4
20260507130310 59 272 1.0 3.0 0.00 0.00 0.00 91 1016.3
20260507124122 58 269 2.0 4.0 0.00 0.00 0.00 91 1016.2
20260507123126 58 226 1.0 3.0 0.00 0.00 0.00 91 1016.2
20260507122147 58 247 0.0 0.0 0.00 0.00 0.00 91 1016.2
20260507121126 58 287 0.0 3.0 0.00 0.00 0.00 91 1016.3
20260507120121 58 264 0.0 0.0 0.00 0.00 0.00 91 1016.2
20260507115132 58 264 0.0 0.0 0.00 0.00 0.00 91 1016.0
20260507114118 58 248 0.0 3.0 0.00 0.00 0.00 91 1016.1
20260507113112 58 255 0.0 1.0 0.00 0.00 0.00 90 1016.0
20260507112127 58 229 1.0 3.0 0.00 0.00 0.00 91 1016.1
20260507111134 58 184 0.0 2.0 0.00 0.00 0.00 91 1016.3
20260507110144 58 102 0.0 2.0 0.00 0.00 0.00 91 1016.2
20260507105118 58 155 0.0 2.0 0.00 0.00 0.00 90 1016.4
20260507104130 59 187 0.0 3.0 0.00 0.00 0.00 91 1016.5
20260507103058 59 199 0.0 3.0 0.00 0.00 0.00 91 1016.6
20260507100930 59 141 0.0 1.0 0.00 0.00 0.00 91 1016.7
20260507095857 59 247 0.0 0.0 0.00 0.00 0.00 90 1016.6
20260507094907 59 247 0.0 0.0 0.00 0.00 0.00 90 1016.7
20260507093932 59 246 0.0 0.0 0.00 0.00 0.00 90 1016.7
20260507092943 59 246 1.0 3.0 0.00 0.00 0.00 90 1016.9
20260507091947 59 247 2.0 4.0 0.00 0.00 0.00 90 1017.0
20260507090923 59 94 2.0 5.0 0.00 0.00 0.00 90 1017.1
20260507085942 59 211 3.0 5.0 0.00 0.00 0.00 90 1017.1
20260507084924 59 259 3.0 6.0 0.00 0.00 0.00 91 1017.1
20260507083921 59 260 1.0 6.0 0.00 0.00 0.00 91 1017.4
20260507082917 59 268 1.0 3.0 0.00 0.00 0.00 91 1017.5
20260507081859 59 247 0.0 3.0 0.00 0.00 0.00 91 1017.5
20260507080847 59 203 1.0 4.0 0.00 0.00 0.00 91 1017.5
20260507075859 59 237 1.0 4.0 0.00 0.00 0.00 91 1017.5
20260507074900 59 300 1.0 4.0 0.00 0.00 0.00 91 1017.6
20260507073859 59 269 0.0 0.0 0.00 0.00 0.00 91 1017.6
20260507072847 59 295 1.0 3.0 0.00 0.00 0.00 91 1017.6
20260507071824 59 241 1.0 3.0 0.00 0.00 0.00 91 1017.6
20260507070843 59 238 1.0 4.0 0.00 0.00 0.00 91 1017.6
20260507065825 59 281 1.0 4.0 0.00 0.00 0.00 91 1017.7
20260507064839 59 295 2.0 4.0 0.00 0.00 0.00 91 1017.8
20260507062735 59 240 2.0 4.0 0.00 0.00 0.00 91 1017.8
20260507061757 59 248 3.0 6.0 0.00 0.00 0.00 91 1017.8
20260507060801 59 250 4.0 6.0 0.00 0.00 0.00 90 1017.8
20260507055813 59 270 4.0 7.0 0.00 0.00 0.00 90 1017.8
20260507054804 59 274 5.0 8.0 0.00 0.00 0.00 90 1017.9
20260507050406 60 250 3.0 6.0 0.00 0.00 0.00 90 1017.7
20260507045418 59 254 4.0 8.0 0.00 0.00 0.00 90 1017.8
20260507043237 60 294 5.0 9.0 0.00 0.00 0.00 89 1017.7
20260507042225 60 247 7.0 11.0 0.00 0.00 0.00 89 1017.7
20260507041221 60 306 8.0 11.0 0.00 0.00 0.00 89 1017.7
20260507040152 61 238 8.0 13.0 0.00 0.00 0.00 88 1017.6
20260507034015 61 336 8.0 12.0 0.00 0.00 0.00 88 1017.3
20260507033011 61 304 9.0 13.0 0.00 0.00 0.00 88 1017.3
20260507032001 61 281 9.0 13.0 0.00 0.00 0.00 87 1017.3
20260507031002 61 293 9.0 14.0 0.00 0.00 0.00 87 1017.1
20260507025949 61 285 8.0 15.0 0.00 0.00 0.00 87 1017.1
20260507025008 61 283 9.0 15.0 0.00 0.00 0.00 86 1017.1
20260507022847 62 289 9.0 15.0 0.00 0.00 0.00 84 1016.8
20260507021849 62 271 8.0 12.0 0.00 0.00 0.00 83 1016.8
20260507020836 63 242 7.0 12.0 0.00 0.00 0.00 83 1016.6
20260507012432 63 342 9.0 15.0 0.00 0.00 0.00 82 1016.6
20260507011440 64 219 9.0 13.0 0.00 0.00 0.00 82 1016.7
20260507010434 64 269 9.0 13.0 0.00 0.00 0.00 82 1016.6
20260507005404 64 259 9.0 14.0 0.00 0.00 0.00 81 1016.5
20260507004409 64 232 9.0 14.0 0.00 0.00 0.00 81 1016.5
20260507002253 64 274 9.0 15.0 0.00 0.00 0.00 80 1016.7
20260507001254 64 293 9.0 15.0 0.00 0.00 0.00 79 1016.7
20260506234020 66 252 8.0 13.0 0.00 0.00 0.00 78 1016.6
20260506233030 66 274 8.0 13.0 0.00 0.00 0.00 78 1016.6
20260506232005 66 295 8.0 13.0 0.00 0.00 0.00 77 1016.6
20260506230957 67 304 8.0 12.0 0.00 0.00 0.00 76 1016.7
20260506225950 67 307 8.0 13.0 0.00 0.00 0.00 76 1016.8
20260506224936 67 257 8.0 13.0 0.00 0.00 0.00 75 1016.9
20260506221658 67 230 7.0 11.0 0.00 0.00 0.00 75 1017.4
20260506220702 67 247 7.0 11.0 0.00 0.00 0.00 76 1017.6
20260506215725 67 250 7.0 11.0 0.00 0.00 0.00 76 1017.6
20260506214659 67 253 7.0 11.0 0.00 0.00 0.00 75 1017.7
20260506213625 67 308 7.0 10.0 0.00 0.00 0.00 74 1017.9
20260506212612 68 224 6.0 11.0 0.00 0.00 0.00 74 1017.9
20260506211538 67 354 6.0 11.0 0.00 0.00 0.00 74 1018.0
20260506210547 67 356 6.0 11.0 0.00 0.00 0.00 75 1018.0
20260506205552 67 259 6.0 10.0 0.00 0.00 0.00 73 1018.1
20260506204559 67 245 6.0 10.0 0.00 0.00 0.00 74 1018.2
20260506203537 67 241 7.0 10.0 0.00 0.00 0.00 73 1018.2
20260506202534 67 299 6.0 10.0 0.00 0.00 0.00 74 1018.2
20260506201501 67 321 6.0 9.0 0.00 0.00 0.00 73 1018.4
20260506200441 67 238 6.0 11.0 0.00 0.00 0.00 73 1018.5
20260506195424 67 207 6.0 11.0 0.00 0.00 0.00 74 1018.5
20260506194359 68 227 6.0 10.0 0.00 0.00 0.00 73 1018.5
20260506193423 68 274 6.0 10.0 0.00 0.00 0.00 73 1018.7
20260506192412 68 318 6.0 9.0 0.00 0.00 0.00 72 1018.7
20260506191411 67 248 6.0 9.0 0.00 0.00 0.00 73 1018.9
20260506190435 67 219 6.0 10.0 0.00 0.00 0.00 72 1018.9
20260506185402 67 135 6.0 10.0 0.00 0.00 0.00 75 1018.9
20260506184422 67 9 6.0 9.0 0.00 0.00 0.00 75 1018.9
20260506182309 67 262 5.0 9.0 0.00 0.00 0.00 75 1019.0
20260506181334 66 298 5.0 8.0 0.00 0.00 0.00 75 1019.1